Home   Weather   Fort Smith   Past weeks

Flag for Canada Past Weather in Fort Smith, Northwest Territories, Canada — Yesterday and Last 2 Weeks

36 °F

Partly sunny.

Feels Like: 30 °F
Forecast: 27 / 34 °F
Wind: 7 mph from Southwest

Location: Fort Smith

Current Time: Oct 28, 2016 at 5:45:30 PM

Latest Report: Oct 28, 2016 at 5:00 PM

Visibility: 15 mi

Pressure: 30.11 "Hg

Humidity: 81%

Dew Point: 30 °F

Location of Fort SmithLocation

Past Weather in Fort Smith — Graph


Fort Smith Temperature Yesterday

Maximum temperature yesterday: 39 °F (at 3:00 PM)
Minimum temperature yesterday: 34 °F (at 12:00 AM)
Average temperature yesterday: 35 °F

High & Low Weather Summary for the Past Weeks

High41 °F (Oct 20, 5:00 PM)100% (Oct 18, 9:00 PM)30.43 "Hg (Oct 18, 9:00 PM)
Low18 °F (Oct 15, 9:00 AM)54% (Oct 14, 11:00 PM)29.63 "Hg (Oct 20, 10:00 PM)
Average32 °F83%29.98 "Hg
* Reported Oct 13 4:00 PM — Oct 28 4:00 PM, Fort Smith, Weather by CustomWeather, © 2016

Note: Actual official high and low records may vary slightly from our data, if they occured in-between our weather recording intervals... More about our weather records


Fort Smith Weather History for the Previous 24 Hours

Scroll right to see more
Time TempWeatherWind HumidityBarometerVisibility
4:00 PM
Fri, Oct 28
36 °FPartly sunny.7 mph75%30.12 "Hg15 mi
3:00 PM36 °FSnow flurries. Overcast.7 mph75%30.14 "Hg12 mi
2:00 PM36 °FSnow flurries. Overcast.7 mph75%30.15 "Hg12 mi
1:00 PM36 °FLight snow. Partly sunny.8 mph70%30.16 "Hg15 mi
12:00 PM34 °FOvercast.3 mph75%30.17 "Hg15 mi
11:00 AM34 °FOvercast.2 mph70%30.17 "Hg15 mi
10:00 AM32 °FOvercast.No wind75%30.17 "Hg15 mi
9:00 AM32 °FOvercast.2 mph75%30.17 "Hg15 mi
8:00 AM32 °FOvercast.2 mph75%30.17 "Hg15 mi
7:00 AM32 °FOvercast.No wind75%30.17 "Hg15 mi
6:00 AM32 °FOvercast.2 mph75%30.16 "Hg15 mi
5:00 AM32 °FOvercast.2 mph80%30.16 "Hg15 mi
4:00 AM34 °FOvercast.2 mph75%30.16 "Hg15 mi
3:00 AM34 °FOvercast.5 mph75%30.14 "Hg15 mi
2:00 AM34 °FOvercast.5 mph75%30.14 "Hg15 mi
1:00 AM34 °FOvercast.3 mph75%30.14 "Hg15 mi
12:00 AM34 °FOvercast.3 mph75%30.13 "Hg15 mi
11:00 PM
Thu, Oct 27
36 °FOvercast.2 mph75%30.11 "Hg15 mi
10:00 PM36 °FOvercast.No wind75%30.11 "Hg15 mi
9:00 PM36 °FOvercast.2 mph75%30.10 "Hg15 mi
8:00 PM37 °FOvercast.5 mph70%30.08 "Hg15 mi
7:00 PM37 °FOvercast.5 mph70%30.07 "Hg15 mi
6:00 PM37 °FPassing clouds.2 mph75%30.05 "Hg15 mi
5:00 PM39 °FPartly sunny.5 mph70%30.04 "Hg15 mi
Weather by CustomWeather, © 2016

See weather overviewHow to use our weather pages